Regional Weather Roundup
Issued by NWS Charleston, SC

Current Version | Previous Version | Graphics & Text | Print | Product List | Glossary On
Versions: 1 2 3 4 5 6 7 8 9 10 11 12 13 14 15 16 17 18 19 20 21 22 23 24 25 26 27 28 29 30 31 32 33 34 35 36 37 38 39 40 41 42 43 44 45 46 47 48 49 50
000
ASUS42 KCHS 170312
RWRCHS

REGIONAL WEATHER ROUNDUP
NATIONAL WEATHER SERVICE CHARLESTON SC
1000 PM EST MON JAN 16 2017

NOTE: "FAIR" INDICATES FEW OR NO CLOUDS BELOW 12,000 FEET WITH NO
SIGNIFICANT WEATHER AND/OR OBSTRUCTIONS TO VISIBILITY.

NOT ALL STATIONS ARE QUALITY CONTROLLED. USE DATA WITH CAUTION...
ESPECIALLY DEWPOINT OBSERVATIONS.

SCZ027-030-031-034>040-042>050-170400-
...SOUTHEAST SOUTH CAROLINA...

CITY           SKY/WX    TMP DP  RH WIND       PRES   REMARKS
N CHARLESTON   MOCLDY    57  54  89 VRB3      30.31F
WATERFRONT PRK   N/A     56  55  97 NE7       30.31F
MOUNT PLEASANT MOCLDY    55  54  94 CALM      30.32S
JOHNS ISLAND   MOCLDY    55  54  94 NE7       30.32S
PINOPOLIS        N/A     57  55  94 CALM      30.24R
MONCKS CORNER  MOCLDY    55  54  94 CALM      30.31F
SUMMERVILLE    CLOUDY   N/A N/A N/A NE3       30.32F
BEAUFORT MCAS  CLOUDY    56  55  97 CALM      30.31S FOG
BEAUFORT ARPT  MOCLDY    57  55  94 E9        30.30S
HILTON HEAD IS PTCLDY    55  55 100 VRB5      30.31F
WALTERBORO     CLOUDY    61 N/A N/A E5        30.32F
ALLENDALE      CLOUDY    61  59  94 E3        30.29F FOG

...SOUTHERN MIDLANDS AND PEE DEE...

CITY           SKY/WX    TMP DP  RH WIND       PRES   REMARKS
GEORGETOWN     CLOUDY    54  50  87 CALM      30.33S
KINGSTREE      CLOUDY    52  50  93 CALM      30.33S
ORANGEBURG     FOG       55  55 100 E5        30.31F VSB 1/2
BARNWELL       FOG       59  59 100 E5        30.31F VSB 3/4
AIKEN          CLOUDY    54  52  94 E6        30.33F
MANNING        FOG       54  52  94 CALM      30.33S VSB 3/4
COLUMBIA       FOG       54  53  97 E5        30.31F VSB 3/4
SUMTER         FOG       52  51  97 E6        30.30F VSB 3/4
FLORENCE       CLOUDY    54  52  93 E5        30.33F
MYRTLE BEACH   CLOUDY    55  48  76 E7        30.35F
N MYRTLE BEACH CLOUDY    54  50  86 CALM      30.33F

$$

GAZ063-065-086>088-099>101-113>116-118-119-134>141-150-170400-
...SOUTHEAST GEORGIA...

CITY           SKY/WX    TMP DP  RH WIND       PRES   REMARKS
SAVANNAH ARPT  CLOUDY    59  56  89 E8        30.31S FOG
HUNTER AAF     MOCLDY    57  57 100 E6        30.29S FOG
FORT STEWART   FOG       58  57  97 E6        30.28S VSB 1
STATESBORO     CLOUDY    62  62  98 SE5       30.30S
SYLVANIA       CLOUDY   N/A N/A N/A SE5       30.31S
CLAXTON        CLOUDY   N/A N/A N/A E5        30.30S

...CSRA...CENTRAL AND FAR SOUTHEAST GEORGIA...

CITY           SKY/WX    TMP DP  RH WIND       PRES   REMARKS
THOMSON        CLOUDY    59  58  97 E3        30.33S
AUGUSTA-BUSH   CLOUDY    59  55  87 SE5       30.29F
AUGUSTA-DANIEL CLOUDY    59  54  83 SE7       30.29F
SWAINSBORO     FAIR      63  59  88 SE7       30.29S
VIDALIA        MOCLDY    63  61  94 SE7       30.28F
EASTMAN        FAIR      54  54  98 SE5       30.29R
HAZLEHURST     FAIR      65  62  90 SE5       30.27S
ALMA           CLOUDY    64  60  87 E5        30.28R
WAYCROSS       CLOUDY    66  66 100 SE6       30.29R
JESUP          CLOUDY    61  57  88 SE3       30.30S FOG
BAXLEY         CLOUDY    64  63  94 SE3       30.29R
BRUNSWICK      FOG       61  61 100 NE6       30.31S VSB 1/4
SAINT SIMONS   FOG       60  60 100 NE7       30.29S VSB 1/2

$$

SCZ027-028-034-036>038-045-046-048>050-GAZ119-141-170400-
...LAKE AND SUPPLEMENTAL COASTAL OBSERVATIONS...

STATION/POSITION TIME  TEMP    WIND        PRES    WAVE   SWELL
                       AIR SEA DIR/SP/G            HT/PER HT/PER/DIR
                 (UTC) (F)     (DEG/KT/KT) (MB)    (FT/S) (FT/S/D)
WINYAH BAY       0145   55      40/  3     1027.0
LAKE MURRAY      0220   53     100/  8/  9 1026.4
ACE BASIN NERRS  0145   59      60/  3     1026.0
FORT PULASKI     0248           70/  6/  8 1026.6F
SAPELO ISLAND    0200   59      50/  5     1026.0

$$

ANZ835-935-AMZ111-154-330-350-352-354-370-450-454-472-170400-
...C-MAN AND BUOY OBSERVATIONS...

STATION/POSITION TIME  TEMP    WIND        PRES    WAVE   SWELL
                       AIR SEA DIR/SP/G            HT/PER HT/PER/DIR
                 (UTC) (F)     (DEG/KT/KT) (MB)    (FT/S) (FT/S/D)
BUOY 41004       0250   69 70   50/ 14/ 16 1025.4F   4/ 6   3/100/ 9
BUOY 41008       0250   61 59   70/  6/  6 1025.6R   3/ 5   3/ 60/ 5
FOLLY BEACH CMAN 0200   55      50/ 12/ 14 1027.0F
CAPERS NEARSHORE 0208   54 54   50/ 12/ 16 1026.4R
FRIPP NEARSHORE  0208   56 56   70/ 12/ 14 1026.1S


STATION/POSITION TIME  TEMP    WIND        PRES    WAVE   SWELL
                       AIR SEA DIR/SP/G            HT/PER HT/PER/DIR
                 (UTC) (F)     (DEG/KT/KT) (MB)    (FT/S) (FT/S/D)
5E ST. MARYS GA  0300      62                N/A     3/ 9   2/ 90/11
FRYING PAN BUOY  0244                        N/A     4/ 6   2/100/ 8
BUOY 41025       0250   54 73  360/ 14/ 16 1027.0F   3/ 8   2/100/ 8
CAPE LOOKOUT NC  0200   48     360/  8/ 10 1027.4F
BUOY 41002       0250   70 71  140/ 10/ 12 1027.0F   4/ 8   3/ 70/ 8
BUOY 41010       NOT AVBL
ST AUGUSTINE FL  0300   66 66   90/  5/  6 1025.7R


$$




USA.gov is the U.S. government's official web portal to all federal, state and local government web resources and services.